STARLINK-32807, 62845

Orbit data source: Space-Track

STARLINK-32807, 62845 is a payload satellite owned by SpaceX/Seattle (US) in LEO that was launched on Mon, 27 Jan 2025 UTC via an FALCON 9 launch vehicle from the Air Force Eastern Test Range (AFETR). Payload-class satellites include a variety of spacecraft equipped with specific instruments for various scientific and technological missions. These include communications satellites like Starlink; space stations such as the ISS; scientific satellites like the Hubble; Earth observation satellites from companies like Planet Labs, Umbra, and HawkEye 360; GPS; miniature CubeSats for education and research; and military/defense satellites.

Loading next visibility...
Identifier
62845, 2025-019S
Orbit
LEO
Country
Flag of USUS
Related business
Manufacturer
SpaceX/Seattle
Mission
Operational Commercial Communications
Bus & Motor
STARLINK V2M, Unknown motor
Mass
730 kg wet, ~700 kg dry
Launch date (UTC)
2025-01-27 (8 months ago)
Launch vehicle
FALCON 9
Launch site
Air Force Eastern Test Range (AFETR)
Object type
Payload
Rocket body
Debris
Shape & HBR
Box + 2 Pan, 14.5 m
Radar Cross Section
33.884 m², Large (>1 m²)

Expand to show TLE details & history
Last TLE update: 21 hours ago

TLE from 21 hours ago
0 STARLINK-32807
1 62845U 25019S   25260.27407282  .00024755  00000-0  90582-3 0  9999
2 62845  42.9995 341.0414 0002511 290.1813  69.8768 15.27588641 35813
Epoch: 2025-09-17T06:34Z
TLE epoch observation values (Epoch: 2025-09-17T06:34:39.891Z)
Latitude
-0.00006°
Longitude
-114.07725°
Altitude
482.206 km
Speed
7.626 km/s
True Right ascension
22h 44m 09s
True Declination
0° 00' 00"
Sunlit
Object was in full shadow at epoch
Visualization orbit readout
Latitude
Unknown
Longitude
Unknown
Altitude
Unknown
Speed
Unknown
Apparent Right ascension
Unknown
Apparent Declination
Unknown
Sunlit
N/A
Visualization observer readout
Local Sidereal Time
20:48:13
Azimuth
Unknown
Elevation
Unknown
Doppler factor
Unknown
Orbital elements
Apogee altitude
486.692 km
Perigee altitude
483.245 km
Semi-major axis
6,863.105 km
Eccentricity
0.00025
Inclination
42.9995°
RAAN
341.0414°
Arg. of periapsis
290.1813°
True anomaly
69.90382°
Mean anomaly
69.8768°
Eccentric anomaly
69.89031°
Mean motion
3.81735 °/min
Orbital period
94.31 mins
BSTAR
0.00090582
Loading maneuver chart data...
Computing Atmospheric mass density...
Loading historical data...
Loading historical data...
Loading historical data...
Loading historical data...
Loading historical data...
Loading historical data...
Loading historical data...

Documentation

Showing up to 5 results
|